Startpagina
METAR-TAF:

METAR-TAF

Vliegvelden :

Ranchi, India

breedte: 23-18-51N, lengte: 85-19-18E, hoogte: 646 m

Actueel weer

Dit bericht is 23 minuten geleden gemaakt, om 06:30 UTC
Wind 2 kt uit het zuiden
Temperatuur 26°C
Vochtigheid 32%
Druk 1017 hPa
Zicht: 4500 m
Heiigheid

METAR: VERC 180630Z 17002KT 4500 HZ NSC 26/08 Q1017 NOSIG

Tijdstip: 12:23 (06:53 UTC)


TAF: ontbreekt

Waarnemingen en weersverwachtingen van meer dan 4000 vliegvelden (METAR en TAF).

De beschikbare stations zijn de gele en rode punten op de kaart.

Ga met uw muis naar het station om de naam te zien.

Klik dan om waarnemingen en weersverwachtingen te zien.

kaart wijzigen: klik op de groene knoppen met een zwart kruis om in te zoomen, op de groene knop met een streepje om uit te zoomen of op de groene pijlen voor aangrenzende kaarten.


METAR-TAF: